Погода в Верхней Павловке

Россия / Липецкая область     53°28′29″N   38°59′33″E
темп.,
°C
ветер,
м/с
пор.,
м/с
влажн.,
%
обл.,
%
осадки,
мм/ч
давл.,
гПа
погр.,
м
21 апреля, ср
ср2100:00+2св51197100 2.4 1007524
03:00+2ссз4798100 6.3 1003282
06:00+2зсз2399100 4.0 1004166
09:00+2зюз3599100 5.4 1006228
12:00+3зюз4689100 0.0 1008591
15:00+5зюз5780100 0.1 1010808
18:00+5зюз3788100 0.0 1012509
21:00+5ююз3490100 0.0 1014115
22 апреля, чт
чт2200:00+5ююв2492100 0.1 1014116
03:00+5зюз3697100 0.9 1015290
06:00+3юз379266 0.1 1017223
09:00+7юз567859 0.1 1019686
12:00+11ююз686155 0.0 10191387
15:00+12ююз586297 0.1 10181458
18:00+12ююз696498 0.2 1018732
21:00+10ю5117790 0.3 1019305
23 апреля, пт
пт2300:00+9ю5128365 0.1 1019298
03:00+8ю5118564 0.1 1019230
06:00+7ю4118519 0.0 1019232
09:00+12ю6116289 0.0 1019537
12:00+16ю7943100 0.0 10182575
15:00+15ю695498 0.0 10171845
18:00+14ююв59585 0.1 1016662
21:00+10юв512745 0.1 1015261
24 апреля, сб
сб2400:00+9ююв5127952 0.1 1013276
03:00+8ю5128177 0.1 1011345
06:00+7юв4890100 0.1 1009193
09:00+10ю61281100 0.8 10081049
12:00+3з61295100 2.4 1010579
15:00+8з7963100 2.8 10101432
18:00+8зюз710540 0.4 10101216
21:00+4зюз511734 0.4 1011414
25 апреля, вс
вс2500:00+3зюз511804 0.0 1012406
03:00+2юз510885 0.0 1012356
06:00+1зюз410905 0.0 1012399
09:00+5з68685 0.0 1012992
12:00+7зюз6753100 0.4 10121825
15:00+8зюз6749100 1.0 10121728
18:00+7юз6859100 0.9 10121217
21:00+5зюз5972100 1.1 1013500